Denver, CO

6:54 AM MST on February 26, 2017 (GMT -0700)
Denver International

Weather History for KDEN - February, 2013

Change the Weather History Date:

Wednesday, February 20, 2013

  Actual Average Record
Temperature  
Mean Temperature 26 °F 33 °F  
Max Temperature 36 °F 47 °F 75 °F (1935)
Min Temperature 16 °F 20 °F -5 °F (1955)
Degree Days  
Heating Degree Days 39 32  
Month to date heating degree days 629 666  
Since 1 July heating degree days 3929 4197  
Cooling Degree Days 0 0  
Month to date cooling degree days 0 0  
Year to date cooling degree days 0 0  
Moisture  
Dew Point 18 °F    
Average Humidity 57    
Maximum Humidity 68    
Minimum Humidity 46    
Precipitation  
Precipitation 0.11 in 0.01 in 0.47 in (1971)
Month to date precipitation 0.13 0.25  
Year to date precipitation 0.44 0.66  
Snow  
Snow 2.30 in - - ()
Month to date snowfall 2.3  
Since 1 July snowfall 19.3  
Snow Depth 0.00 in    
Sea Level Pressure  
Sea Level Pressure 29.69 in    
Wind  
Wind Speed 9 mph (East)    
Max Wind Speed 18 mph    
Max Gust Speed 21 mph    
Visibility 5 miles    
Events Fog , Snow    
T = Trace of Precipitation, MM = Missing Value Source: NWS Daily Summary

Daily Weather History Graph

Daily Weather History Graph

Search for Another Location

Airport or City:

Trip Planner

Search our weather history database for the weather conditions in past years. The results will help you decide how hot, cold, wet, or windy it might be!

Date:

Astronomy

Feb. 20, 2013 Rise Set
Actual Time 6:44 AM MST 5:40 PM MST
Civil Twilight 6:16 AM MST 6:08 PM MST
Nautical Twilight 5:45 AM MST 6:39 PM MST
Astronomical Twilight 5:14 AM MST 7:11 PM MST
Moon 1:04 PM MST (2/20) 3:06 AM MST (2/20)
Length of Visible Light 11h 51m
Length of Day
10h 56m
Waxing Gibbous, 76% of the Moon is Illuminated
Feb 20
Waxing Gibbous
Feb 25
Full
Mar 4
Last Quarter
Mar 11
New
Mar 19
First Quarter

Hourly Weather History & Observations

Time (MST) Temp. Windchill Dew Point Humidity Pressure Visibility Wind Dir Wind Speed Gust Speed Precip Events Conditions
12:53 AM 21.9 °F 9.8 °F 10.9 °F 63% 29.78 in 10.0 mi West 12.7 mph - N/A   Mostly Cloudy
1:53 AM 21.0 °F 9.3 °F 10.9 °F 65% 29.76 in 10.0 mi West 11.5 mph - N/A   Mostly Cloudy
2:53 AM 19.9 °F 7.9 °F 10.9 °F 68% 29.76 in 10.0 mi WNW 11.5 mph - N/A   Mostly Cloudy
3:53 AM 19.0 °F 10.0 °F 10.9 °F 71% 29.75 in 10.0 mi WSW 6.9 mph - N/A   Mostly Cloudy
4:53 AM 19.0 °F 8.2 °F 10.9 °F 71% 29.76 in 10.0 mi West 9.2 mph - N/A   Mostly Cloudy
5:53 AM 19.4 °F 9.5 °F 10.4 °F 68% 29.73 in 10.0 mi WSW 8.1 mph - N/A   Mostly Cloudy
6:53 AM 19.0 °F 11.1 °F 10.9 °F 71% 29.80 in 10.0 mi West 5.8 mph - N/A   Overcast
7:53 AM 21.0 °F - 12.0 °F 68% 29.80 in 10.0 mi Calm Calm - N/A   Overcast
8:53 AM 21.9 °F 15.7 °F 12.9 °F 68% 29.79 in 10.0 mi SSE 4.6 mph - N/A   Overcast
9:53 AM 26.1 °F 21.9 °F 12.9 °F 58% 29.76 in 10.0 mi Variable 3.5 mph - N/A   Overcast
10:53 AM 30.0 °F 26.5 °F 14.0 °F 51% 29.74 in 10.0 mi ESE 3.5 mph - N/A   Overcast
11:53 AM 34.0 °F 27.2 °F 19.0 °F 54% 29.71 in 10.0 mi SSE 8.1 mph - N/A   Overcast
12:39 PM 35.6 °F 28.0 °F 21.2 °F 56% 29.64 in 10.0 mi ESE 10.4 mph - N/A   Overcast
12:53 PM 35.1 °F 28.6 °F 21.9 °F 59% 29.67 in 10.0 mi SE 8.1 mph - N/A   Overcast
1:53 PM 33.8 °F 24.8 °F 24.8 °F 70% 29.60 in 10.0 mi East 12.7 mph - N/A   Overcast
2:07 PM 32.0 °F 23.0 °F 26.6 °F 80% 29.60 in 2.5 mi East 11.5 mph - 0.00 in Snow Light Snow
2:15 PM 30.2 °F 21.3 °F 26.6 °F 86% 29.60 in 0.2 mi East 10.4 mph - 0.00 in Snow Light Snow
2:41 PM 30.2 °F 20.2 °F 26.6 °F 86% 29.60 in 0.2 mi ENE 12.7 mph - 0.01 in Snow Light Snow
2:45 PM 30.2 °F 20.8 °F 26.6 °F 86% 29.60 in 2.0 mi East 11.5 mph - 0.01 in Snow Light Snow
2:53 PM 30.9 °F 21.2 °F 26.1 °F 82% 29.66 in 2.0 mi ENE 12.7 mph - 0.01 in   Overcast
3:05 PM 30.2 °F 19.8 °F 26.6 °F 86% 29.60 in 0.5 mi East 13.8 mph - 0.00 in Snow Light Snow
3:53 PM 28.9 °F 18.2 °F 25.0 °F 85% 29.68 in 0.5 mi East 13.8 mph - 0.01 in Snow Light Snow
4:11 PM 28.4 °F 18.5 °F 24.8 °F 86% 29.61 in 0.2 mi East 11.5 mph - 0.01 in Fog , Snow Light Snow
4:30 PM 28.4 °F 19.7 °F 24.8 °F 86% 29.61 in 0.2 mi East 9.2 mph - 0.02 in Fog , Snow Snow
4:53 PM 28.0 °F 18.6 °F 24.1 °F 85% 29.69 in 0.2 mi East 10.4 mph - 0.05 in Fog , Snow Light Snow
5:18 PM 28.4 °F 19.1 °F 24.8 °F 86% 29.62 in 0.2 mi East 10.4 mph - 0.01 in Snow Light Snow
5:32 PM 26.6 °F 15.2 °F 21.2 °F 80% 29.62 in 1.0 mi ENE 13.8 mph - 0.01 in Snow Light Snow
5:53 PM 24.8 °F 12.4 °F 19.4 °F 80% 29.62 in 1.0 mi East 15.0 mph - N/A Snow Light Snow
6:20 PM 23.0 °F 11.1 °F 19.4 °F 86% 29.63 in 1.0 mi East 12.7 mph - 0.00 in   Overcast
6:29 PM 23.0 °F 10.6 °F 19.4 °F 86% 29.63 in 3.0 mi East 13.8 mph - 0.00 in   Overcast
6:42 PM 21.2 °F 8.3 °F 17.6 °F 86% 29.64 in 3.0 mi East 13.8 mph - 0.00 in Snow Light Snow
6:53 PM 21.9 °F 9.8 °F 18.0 °F 85% 29.75 in 3.0 mi East 12.7 mph - 0.00 in Snow Light Snow
7:33 PM 21.2 °F 10.9 °F 17.6 °F 86% 29.64 in 3.0 mi East 9.2 mph - 0.00 in Snow Light Snow
7:53 PM 21.0 °F 9.3 °F 17.1 °F 85% 29.75 in 3.0 mi ENE 11.5 mph - 0.00 in Snow Light Snow
8:37 PM 19.4 °F 7.2 °F 15.8 °F 86% 29.65 in 2.0 mi ENE 11.5 mph - 0.01 in Snow Light Snow
8:49 PM 19.4 °F 7.9 °F 15.8 °F 86% 29.66 in 2.0 mi ENE 10.4 mph - 0.01 in   Overcast
8:53 PM 19.4 °F 7.2 °F 15.8 °F 86% 29.66 in 2.0 mi ENE 11.5 mph - N/A   Overcast
9:53 PM 19.0 °F 7.5 °F 15.1 °F 85% 29.76 in 2.0 mi NE 10.4 mph - 0.01 in Snow Light Snow
10:53 PM 19.0 °F 7.5 °F 14.0 °F 81% 29.75 in 1.5 mi NNE 10.4 mph - 0.01 in Snow Light Snow
11:16 PM 17.6 °F 5.7 °F 12.2 °F 79% 29.68 in 2.0 mi NE 10.4 mph - 0.00 in Snow Light Snow
11:37 PM 17.6 °F 4.3 °F 12.2 °F 79% 29.67 in 2.0 mi NE 12.7 mph - 0.00 in Snow Light Snow
11:46 PM 15.8 °F 2.1 °F 12.2 °F 86% 29.68 in 2.0 mi NE 12.7 mph - 0.00 in Snow Light Snow
11:53 PM 16.0 °F 2.9 °F 12.0 °F 84% 29.75 in 2.0 mi NE 11.5 mph - 0.00 in Snow Light Snow